Location: Bannatyne
(13.0833°N, 59.5333°W)
Time: 22:00:44
(UTC+00:00)

Vanguard 3 - Pass Details

Date: 24 January 2020
Orbit: 508 x 3263 km, 33.3° (Epoch: 19 February)

Event Time Altitude Azimuth Distance (km) Brightness Sun altitude
Rises 23:25:56 0° 282° (WNW) 7,210 13.0 -21.9°
Reaches altitude 10° 23:31:44 10° 291° (WNW) 6,190 12.3 -23.2°
Maximum altitude 23:48:36 35° 350° (N) 3,879 10.4 -27.2°
Enters shadow 23:55:22 26° 30° (NNE) 3,905 10.2 -28.8°
Drops below altitude 10° 00:00:53 10° 52° (NE) 4,546 - -30.1°
Sets 00:04:22 0° 62° (ENE) 5,177 - -30.9°
